Location: Forst
(46.9333°N, 15.4333°E)
Time: 16:31:04
(UTC+00:00)

Cosmos 1943 - Pass Details

Date: 01 December 2020
Orbit: 832 x 851 km, 71.0° (Epoch: 27 January)

Event Time Altitude Azimuth Distance (km) Brightness Sun altitude
Rises 16:08:17 0° 166° (SSE) 3,378 6.4 -9.5°
Reaches altitude 10° 16:11:08 10° 153° (SSE) 2,452 5.6 -9.9°
Maximum altitude 16:15:31 24° 102° (ESE) 1,689 4.3 -10.6°
Enters shadow 16:18:56 14° 58° (ENE) 2,199 4.7 -11.2°
